Year,Month,Day,Hour,Minute,Value (Times are PST for temperature in C)
2016,08,11,00,00,16.80
2016,08,11,00,01,16.80
2016,08,11,00,02,16.80
2016,08,11,00,03,16.80
2016,08,11,00,04,16.80
2016,08,11,00,05,16.80
2016,08,11,00,06,16.80
2016,08,11,00,07,16.80
2016,08,11,00,08,16.80
2016,08,11,00,09,16.80
2016,08,11,00,10,16.80
2016,08,11,00,11,16.80
2016,08,11,00,12,16.80
2016,08,11,00,13,16.80
2016,08,11,00,14,16.80
2016,08,11,00,15,16.80
2016,08,11,00,16,16.70
2016,08,11,00,17,16.70
2016,08,11,00,18,16.70
2016,08,11,00,19,16.60
2016,08,11,00,20,16.60
2016,08,11,00,21,16.60
2016,08,11,00,22,16.60
2016,08,11,00,23,16.60
2016,08,11,00,24,16.60
2016,08,11,00,25,16.60
2016,08,11,00,26,16.60
2016,08,11,00,27,16.60
2016,08,11,00,28,16.60
2016,08,11,00,29,16.60
2016,08,11,00,30,16.60
2016,08,11,00,31,16.60
2016,08,11,00,32,16.70
2016,08,11,00,33,16.70
2016,08,11,00,34,16.70
2016,08,11,00,35,16.70
2016,08,11,00,36,16.80
2016,08,11,00,37,16.80
2016,08,11,00,38,16.80
2016,08,11,00,39,16.80
2016,08,11,00,40,16.80
2016,08,11,00,41,16.80
2016,08,11,00,42,16.80
2016,08,11,00,43,16.80
2016,08,11,00,44,16.80
2016,08,11,00,45,16.90
2016,08,11,00,46,16.90
2016,08,11,00,47,16.90
2016,08,11,00,48,16.90
2016,08,11,00,49,16.90
2016,08,11,00,50,17.00
2016,08,11,00,51,17.00
2016,08,11,00,52,17.00
2016,08,11,00,53,17.00
2016,08,11,00,54,17.00
2016,08,11,00,55,17.00
2016,08,11,00,56,17.00
2016,08,11,00,57,17.10
2016,08,11,00,58,17.10
2016,08,11,00,59,17.10
2016,08,11,01,00,17.10
2016,08,11,01,01,17.10
2016,08,11,01,02,17.10
2016,08,11,01,03,17.10
2016,08,11,01,04,17.10
2016,08,11,01,05,17.10
2016,08,11,01,06,17.10
2016,08,11,01,07,17.10
2016,08,11,01,08,17.10
2016,08,11,01,09,17.20
2016,08,11,01,10,17.20
2016,08,11,01,11,17.20
2016,08,11,01,12,17.20
2016,08,11,01,13,17.20
2016,08,11,01,14,17.20
2016,08,11,01,15,17.20
2016,08,11,01,16,17.20
2016,08,11,01,17,17.20
2016,08,11,01,18,17.20
2016,08,11,01,19,17.20
2016,08,11,01,20,17.20
2016,08,11,01,21,17.20
2016,08,11,01,22,17.20
2016,08,11,01,23,17.20
2016,08,11,01,24,17.20
2016,08,11,01,25,17.20
2016,08,11,01,26,17.20
2016,08,11,01,27,17.20
2016,08,11,01,28,17.20
2016,08,11,01,29,17.20
2016,08,11,01,30,17.20
2016,08,11,01,31,17.20
2016,08,11,01,32,17.20
2016,08,11,01,33,17.20
2016,08,11,01,34,17.20
2016,08,11,01,35,17.20
2016,08,11,01,36,17.20
2016,08,11,01,37,17.20
2016,08,11,01,38,17.20
2016,08,11,01,39,17.20
2016,08,11,01,40,17.20
2016,08,11,01,41,17.20
2016,08,11,01,42,17.20
2016,08,11,01,43,17.20
2016,08,11,01,44,17.20
2016,08,11,01,45,17.20
2016,08,11,01,46,17.20
2016,08,11,01,47,17.20
2016,08,11,01,48,17.20
2016,08,11,01,49,17.20
2016,08,11,01,50,17.20
2016,08,11,01,51,17.10
2016,08,11,01,52,17.10
2016,08,11,01,53,17.10
2016,08,11,01,54,17.10
2016,08,11,01,55,17.10
2016,08,11,01,56,17.10
2016,08,11,01,57,17.10
2016,08,11,01,58,17.00
2016,08,11,01,59,17.00
2016,08,11,02,00,17.00
2016,08,11,02,01,17.00
2016,08,11,02,02,16.90
2016,08,11,02,03,16.90
2016,08,11,02,04,16.90
2016,08,11,02,05,16.90
2016,08,11,02,06,16.80
2016,08,11,02,07,16.80
2016,08,11,02,08,16.80
2016,08,11,02,09,16.80
2016,08,11,02,10,16.80
2016,08,11,02,11,16.70
2016,08,11,02,12,16.70
2016,08,11,02,13,16.70
2016,08,11,02,14,16.70
2016,08,11,02,15,16.70
2016,08,11,02,16,16.70
2016,08,11,02,17,16.70
2016,08,11,02,18,16.70
2016,08,11,02,19,16.70
2016,08,11,02,20,16.60
2016,08,11,02,21,16.60
2016,08,11,02,22,16.60
2016,08,11,02,23,16.60
2016,08,11,02,24,16.60
2016,08,11,02,25,16.60
2016,08,11,02,26,16.60
2016,08,11,02,27,16.60
2016,08,11,02,28,16.60
2016,08,11,02,29,16.60
2016,08,11,02,30,16.60
2016,08,11,02,31,16.60
2016,08,11,02,32,16.60
2016,08,11,02,33,16.60
2016,08,11,02,34,16.60
2016,08,11,02,35,16.60
2016,08,11,02,36,16.60
2016,08,11,02,37,16.60
2016,08,11,02,38,16.50
2016,08,11,02,39,16.50
2016,08,11,02,40,16.50
2016,08,11,02,41,16.50
2016,08,11,02,42,16.50
2016,08,11,02,43,16.40
2016,08,11,02,44,16.40
2016,08,11,02,45,16.40
2016,08,11,02,46,16.40
2016,08,11,02,47,16.30
2016,08,11,02,48,16.30
2016,08,11,02,49,16.30
2016,08,11,02,50,16.30
2016,08,11,02,51,16.30
2016,08,11,02,52,16.20
2016,08,11,02,53,16.20
2016,08,11,02,54,16.20
2016,08,11,02,55,16.20
2016,08,11,02,56,16.20
2016,08,11,02,57,16.10
2016,08,11,02,58,16.10
2016,08,11,02,59,16.10
2016,08,11,03,00,16.10
2016,08,11,03,01,16.10
2016,08,11,03,02,16.00
2016,08,11,03,03,16.00
2016,08,11,03,04,16.00
2016,08,11,03,05,15.90
2016,08,11,03,06,15.90
2016,08,11,03,07,15.90
2016,08,11,03,08,15.90
2016,08,11,03,09,15.80
2016,08,11,03,10,15.80
2016,08,11,03,11,15.70
2016,08,11,03,12,15.70
2016,08,11,03,13,15.60
2016,08,11,03,14,15.60
2016,08,11,03,15,15.50
2016,08,11,03,16,15.50
2016,08,11,03,17,15.40
2016,08,11,03,18,15.40
2016,08,11,03,19,15.40
2016,08,11,03,20,15.40
2016,08,11,03,21,15.30
2016,08,11,03,22,15.30
2016,08,11,03,23,15.30
2016,08,11,03,24,15.30
2016,08,11,03,25,15.30
2016,08,11,03,26,15.30
2016,08,11,03,27,15.20
2016,08,11,03,28,15.20
2016,08,11,03,29,15.20
2016,08,11,03,30,15.20
2016,08,11,03,31,15.20
2016,08,11,03,32,15.20
2016,08,11,03,33,15.20
2016,08,11,03,34,15.10
2016,08,11,03,35,15.10
2016,08,11,03,36,15.10
2016,08,11,03,37,15.10
2016,08,11,03,38,15.10
2016,08,11,03,39,15.00
2016,08,11,03,40,15.00
2016,08,11,03,41,15.00
2016,08,11,03,42,15.00
2016,08,11,03,43,14.90
2016,08,11,03,44,14.90
2016,08,11,03,45,14.90
2016,08,11,03,46,14.90
2016,08,11,03,47,14.90
2016,08,11,03,48,14.90
2016,08,11,03,49,14.90
2016,08,11,03,50,14.90
2016,08,11,03,51,14.80
2016,08,11,03,52,14.80
2016,08,11,03,53,14.80
2016,08,11,03,54,14.80
2016,08,11,03,55,14.80
2016,08,11,03,56,14.80
2016,08,11,03,57,14.70
2016,08,11,03,58,14.70
2016,08,11,03,59,14.70
2016,08,11,04,00,14.70
2016,08,11,04,01,14.70
2016,08,11,04,02,14.70
2016,08,11,04,03,14.70
2016,08,11,05,04,13.80
2016,08,11,05,05,13.80
2016,08,11,05,06,13.80
2016,08,11,05,07,13.80
2016,08,11,05,08,13.80
2016,08,11,05,09,13.70
2016,08,11,05,10,13.70
2016,08,11,05,11,13.70
2016,08,11,05,12,13.70
2016,08,11,05,13,13.70
2016,08,11,05,14,13.70
2016,08,11,05,15,13.70
2016,08,11,05,16,13.70
2016,08,11,05,17,13.70
2016,08,11,05,18,13.70
2016,08,11,05,19,13.70
2016,08,11,05,20,13.70
2016,08,11,05,21,13.70
2016,08,11,05,22,13.70
2016,08,11,05,23,13.70
2016,08,11,05,24,13.70
2016,08,11,05,25,13.70
2016,08,11,05,26,13.70
2016,08,11,05,27,13.70
2016,08,11,05,28,13.60
2016,08,11,05,29,13.60
2016,08,11,05,30,13.60
2016,08,11,05,31,13.60
2016,08,11,05,32,13.70
2016,08,11,05,33,13.60
2016,08,11,05,34,13.60
2016,08,11,05,35,13.60
2016,08,11,05,36,13.60
2016,08,11,05,37,13.60
2016,08,11,05,38,13.70
2016,08,11,05,39,13.70
2016,08,11,05,40,13.70
2016,08,11,05,41,13.70
2016,08,11,05,42,13.70
2016,08,11,05,43,13.70
2016,08,11,05,44,13.70
2016,08,11,05,45,13.70
2016,08,11,05,46,13.70
2016,08,11,05,47,13.80
2016,08,11,05,48,13.80
2016,08,11,05,49,13.80
2016,08,11,05,50,13.80
2016,08,11,05,51,13.80
2016,08,11,05,52,13.80
2016,08,11,05,53,13.80
2016,08,11,05,54,13.80
2016,08,11,05,55,13.80
2016,08,11,05,56,13.80
2016,08,11,05,57,13.80
2016,08,11,05,58,13.80
2016,08,11,05,59,13.80
2016,08,11,06,00,13.80
2016,08,11,06,01,13.80
2016,08,11,06,02,13.80
2016,08,11,06,03,13.80
2016,08,11,06,04,13.80
2016,08,11,06,05,13.80
2016,08,11,06,06,13.80
2016,08,11,06,07,13.80
2016,08,11,06,08,13.80
2016,08,11,06,09,13.80
2016,08,11,06,10,13.80
2016,08,11,06,11,13.80
2016,08,11,06,12,13.80
2016,08,11,06,13,13.90
2016,08,11,06,14,13.90
2016,08,11,06,15,13.90
2016,08,11,06,16,13.90
2016,08,11,06,17,13.90
2016,08,11,06,18,13.90
2016,08,11,06,19,13.90
2016,08,11,06,20,13.90
2016,08,11,06,21,13.90
2016,08,11,06,22,13.90
2016,08,11,06,23,13.90
2016,08,11,06,24,13.90
2016,08,11,06,25,13.90
2016,08,11,06,26,13.90
2016,08,11,06,27,13.90
2016,08,11,06,28,13.90
2016,08,11,06,29,13.90
2016,08,11,06,30,13.90
2016,08,11,06,31,13.90
2016,08,11,06,32,13.90
2016,08,11,06,33,13.90
2016,08,11,06,34,13.90
2016,08,11,06,35,13.90
2016,08,11,06,36,13.90
2016,08,11,06,37,13.90
2016,08,11,06,38,13.90
2016,08,11,06,39,14.00
2016,08,11,06,40,14.00
2016,08,11,06,41,14.00
2016,08,11,06,42,14.00
2016,08,11,06,43,14.00
2016,08,11,06,44,14.00
2016,08,11,06,45,14.00
2016,08,11,06,46,14.00
2016,08,11,06,47,14.00
2016,08,11,06,48,14.00
2016,08,11,06,49,14.00
2016,08,11,06,50,14.00
2016,08,11,06,51,14.10
2016,08,11,06,52,14.10
2016,08,11,06,53,14.10
2016,08,11,06,54,14.10
2016,08,11,06,55,14.10
2016,08,11,06,56,14.10
2016,08,11,06,57,14.10
2016,08,11,06,58,14.10
2016,08,11,06,59,14.10
2016,08,11,07,00,14.10
2016,08,11,07,01,14.10
2016,08,11,07,02,14.10
2016,08,11,07,03,14.10
2016,08,11,07,04,14.10
2016,08,11,07,05,14.10
2016,08,11,07,06,14.10
2016,08,11,07,07,14.20
2016,08,11,07,08,14.20
2016,08,11,07,09,14.20
2016,08,11,07,10,14.20
2016,08,11,07,11,14.20
2016,08,11,07,12,14.20
2016,08,11,07,13,14.20
2016,08,11,07,14,14.20
2016,08,11,07,15,14.20
2016,08,11,07,16,14.20
2016,08,11,07,17,14.20
2016,08,11,07,18,14.30
2016,08,11,07,19,14.30
2016,08,11,07,20,14.40
2016,08,11,07,21,14.40
2016,08,11,07,22,14.50
2016,08,11,07,23,14.60
2016,08,11,07,24,14.60
2016,08,11,07,25,14.70
2016,08,11,07,26,14.70
2016,08,11,07,27,14.80
2016,08,11,07,28,14.80
2016,08,11,07,29,14.90
2016,08,11,07,30,14.90
2016,08,11,07,31,15.00
2016,08,11,07,32,15.10
2016,08,11,07,33,15.20
2016,08,11,07,34,15.20
2016,08,11,07,35,15.30
2016,08,11,07,36,15.30
2016,08,11,07,37,15.40
2016,08,11,07,38,15.50
2016,08,11,07,39,15.50
2016,08,11,07,40,15.60
2016,08,11,07,41,15.70
2016,08,11,07,42,15.80
2016,08,11,07,43,15.80
2016,08,11,07,44,15.90
2016,08,11,07,45,16.00
2016,08,11,07,46,16.10
2016,08,11,07,47,16.20
2016,08,11,07,48,16.30
2016,08,11,07,49,16.40
2016,08,11,07,50,16.40
2016,08,11,07,51,16.50
2016,08,11,07,52,16.60
2016,08,11,07,53,16.60
2016,08,11,07,54,16.70
2016,08,11,07,55,16.70
2016,08,11,07,56,16.80
2016,08,11,07,57,16.90
2016,08,11,07,58,16.90
2016,08,11,07,59,17.00
2016,08,11,08,00,17.10
2016,08,11,08,01,17.10
2016,08,11,08,02,17.20
2016,08,11,08,03,17.30
2016,08,11,08,04,17.30
2016,08,11,08,05,17.40
2016,08,11,08,06,17.50
2016,08,11,08,07,17.50
2016,08,11,08,08,17.60
2016,08,11,08,09,17.60
2016,08,11,08,10,17.70
2016,08,11,08,11,17.70
2016,08,11,08,12,17.80
2016,08,11,08,13,17.80
2016,08,11,08,14,17.80
2016,08,11,08,15,17.90
2016,08,11,08,16,17.90
2016,08,11,08,17,18.00
2016,08,11,08,18,18.00
2016,08,11,08,19,18.00
2016,08,11,08,20,18.00
2016,08,11,08,21,18.10
2016,08,11,08,22,18.10
2016,08,11,08,23,18.20
2016,08,11,08,24,18.20
2016,08,11,08,25,18.30
2016,08,11,08,26,18.30
2016,08,11,08,27,18.30
2016,08,11,08,28,18.40
2016,08,11,08,29,18.40
2016,08,11,08,30,18.40
2016,08,11,08,31,18.50
2016,08,11,08,32,18.50
2016,08,11,08,33,18.60
2016,08,11,08,34,18.60
2016,08,11,08,35,18.60
2016,08,11,08,36,18.60
2016,08,11,08,37,18.70
2016,08,11,08,38,18.70
2016,08,11,08,39,18.70
2016,08,11,08,40,18.80
2016,08,11,08,41,18.80
2016,08,11,08,42,18.90
2016,08,11,08,43,18.90
2016,08,11,08,44,18.90
2016,08,11,08,45,19.00
2016,08,11,08,46,19.00
2016,08,11,08,47,19.00
2016,08,11,08,48,19.10
2016,08,11,08,49,19.20
2016,08,11,08,50,19.20
2016,08,11,08,51,19.30
2016,08,11,08,52,19.30
2016,08,11,08,53,19.30
2016,08,11,08,54,19.40
2016,08,11,08,55,19.50
2016,08,11,08,56,19.50
2016,08,11,08,57,19.60
2016,08,11,08,58,19.60
2016,08,11,08,59,19.70
2016,08,11,09,00,19.70
2016,08,11,09,01,19.70
2016,08,11,09,02,19.80
2016,08,11,09,03,19.80
2016,08,11,09,04,19.80
2016,08,11,09,05,19.70
2016,08,11,09,06,19.80
2016,08,11,09,07,19.80
2016,08,11,09,08,19.80
2016,08,11,09,09,19.80
2016,08,11,09,10,19.70
2016,08,11,09,11,19.70
2016,08,11,09,12,19.70
2016,08,11,09,13,19.70
2016,08,11,09,14,19.70
2016,08,11,09,15,19.70
2016,08,11,09,16,19.70
2016,08,11,09,17,19.70
2016,08,11,09,18,19.70
2016,08,11,09,19,19.80
2016,08,11,09,20,19.80
2016,08,11,09,21,19.90
2016,08,11,09,22,19.90
2016,08,11,09,23,20.00
2016,08,11,09,24,20.10
2016,08,11,09,25,20.10
2016,08,11,09,26,20.10
2016,08,11,09,27,20.10
2016,08,11,09,28,20.10
2016,08,11,09,29,20.10
2016,08,11,09,30,20.20
2016,08,11,09,31,20.20
2016,08,11,09,32,20.20
2016,08,11,09,33,20.20
2016,08,11,09,34,20.20
2016,08,11,09,35,20.20
2016,08,11,09,36,20.30
2016,08,11,09,37,20.30
2016,08,11,09,38,20.30
2016,08,11,09,39,20.30
2016,08,11,09,40,20.20
2016,08,11,09,41,20.20
2016,08,11,09,42,20.20
2016,08,11,09,43,20.20
2016,08,11,09,44,20.20
2016,08,11,09,45,20.20
2016,08,11,09,46,20.20
2016,08,11,09,47,20.30
2016,08,11,09,48,20.30
2016,08,11,09,49,20.30
2016,08,11,09,50,20.30
2016,08,11,09,51,20.30
2016,08,11,09,52,20.40
2016,08,11,09,53,20.40
2016,08,11,09,54,20.40
2016,08,11,09,55,20.40
2016,08,11,09,56,20.40
2016,08,11,09,57,20.40
2016,08,11,09,58,20.40
2016,08,11,09,59,20.40
2016,08,11,10,00,20.40
2016,08,11,10,01,20.40
2016,08,11,10,02,20.40
2016,08,11,10,03,20.40
2016,08,11,10,04,20.40
2016,08,11,10,05,20.40
2016,08,11,10,06,20.40
2016,08,11,10,07,20.30
2016,08,11,10,08,20.30
2016,08,11,10,09,20.30
2016,08,11,10,10,20.30
2016,08,11,10,11,20.30
2016,08,11,10,12,20.40
2016,08,11,10,13,20.40
2016,08,11,10,14,20.50
2016,08,11,10,15,20.50
2016,08,11,10,16,20.50
2016,08,11,10,17,20.50
2016,08,11,10,18,20.50
2016,08,11,10,19,20.50
2016,08,11,10,20,20.60
2016,08,11,10,21,20.50
2016,08,11,10,22,20.50
2016,08,11,10,23,20.50
2016,08,11,10,24,20.40
2016,08,11,10,25,20.40
2016,08,11,10,26,20.50
2016,08,11,10,27,20.50
2016,08,11,10,28,20.50
2016,08,11,10,29,20.50
2016,08,11,10,30,20.50
2016,08,11,10,31,20.40
2016,08,11,10,32,20.40
2016,08,11,10,33,20.40
2016,08,11,10,34,20.30
2016,08,11,10,35,20.30
2016,08,11,10,36,20.30
2016,08,11,10,37,20.30
2016,08,11,10,38,20.30
2016,08,11,10,39,20.30
2016,08,11,10,40,20.40
2016,08,11,10,41,20.40
2016,08,11,10,42,20.40
2016,08,11,10,43,20.40
2016,08,11,10,44,20.50
2016,08,11,10,45,20.50
2016,08,11,10,46,20.60
2016,08,11,10,47,20.60
2016,08,11,10,48,20.60
2016,08,11,10,49,20.70
2016,08,11,10,50,20.70
2016,08,11,10,51,20.80
2016,08,11,10,52,20.80
2016,08,11,10,53,20.80
2016,08,11,10,54,20.90
2016,08,11,10,55,20.90
2016,08,11,10,56,20.90
2016,08,11,10,57,20.90
2016,08,11,10,58,20.90
2016,08,11,10,59,20.90
2016,08,11,11,00,20.90
2016,08,11,11,01,20.90
2016,08,11,11,02,20.90
2016,08,11,11,03,21.00
2016,08,11,11,04,20.90
2016,08,11,11,05,20.90
2016,08,11,11,06,20.90
2016,08,11,11,07,20.90
2016,08,11,11,08,20.80
2016,08,11,11,09,20.90
2016,08,11,11,10,20.90
2016,08,11,11,11,20.90
2016,08,11,11,12,21.00
2016,08,11,11,13,21.10
2016,08,11,11,14,21.10
2016,08,11,11,15,21.10
2016,08,11,11,16,21.20
2016,08,11,11,17,21.30
2016,08,11,11,18,21.40
2016,08,11,11,19,21.40
2016,08,11,11,20,21.40
2016,08,11,11,21,21.40
2016,08,11,11,22,21.50
2016,08,11,11,23,21.50
2016,08,11,11,24,21.50
2016,08,11,11,25,21.50
2016,08,11,11,26,21.50
2016,08,11,11,27,21.60
2016,08,11,11,28,21.60
2016,08,11,11,29,21.70
2016,08,11,11,30,21.70
2016,08,11,11,31,21.70
2016,08,11,11,32,21.70
2016,08,11,11,33,21.70
2016,08,11,11,34,21.70
2016,08,11,11,35,21.80
2016,08,11,11,36,21.80
2016,08,11,11,37,21.80
2016,08,11,11,38,21.80
2016,08,11,11,39,21.90
2016,08,11,11,40,22.00
2016,08,11,11,41,22.10
2016,08,11,11,42,22.10
2016,08,11,11,43,22.20
2016,08,11,11,44,22.20
2016,08,11,11,45,22.20
2016,08,11,11,46,22.10
2016,08,11,11,47,22.10
2016,08,11,11,48,22.00
2016,08,11,11,49,21.90
2016,08,11,11,50,21.90
2016,08,11,11,51,21.90
2016,08,11,11,52,22.00
2016,08,11,11,53,22.10
2016,08,11,11,54,22.10
2016,08,11,11,55,22.10
2016,08,11,11,56,22.20
2016,08,11,11,57,22.20
2016,08,11,11,58,22.20
2016,08,11,11,59,22.30
2016,08,11,12,00,22.30
2016,08,11,12,01,22.30
2016,08,11,12,02,22.30
2016,08,11,12,03,22.30
2016,08,11,12,04,22.40
2016,08,11,12,05,22.40
2016,08,11,12,06,22.50
2016,08,11,12,07,22.60
2016,08,11,12,08,22.60
2016,08,11,12,09,22.70
2016,08,11,12,10,22.70
2016,08,11,12,11,22.70
2016,08,11,12,12,22.70
2016,08,11,12,13,22.60
2016,08,11,12,14,22.60
2016,08,11,12,15,22.60
2016,08,11,12,16,22.70
2016,08,11,12,17,22.70
2016,08,11,12,18,22.70
2016,08,11,12,19,22.70
2016,08,11,12,20,22.60
2016,08,11,12,21,22.60
2016,08,11,12,22,22.60
2016,08,11,12,23,22.50
2016,08,11,12,24,22.50
2016,08,11,12,25,22.50
2016,08,11,12,26,22.50
2016,08,11,12,27,22.50
2016,08,11,12,28,22.50
2016,08,11,12,29,22.50
2016,08,11,12,30,22.60
2016,08,11,12,31,22.60
2016,08,11,12,32,22.60
2016,08,11,12,33,22.70
2016,08,11,12,34,22.70
2016,08,11,12,35,22.70
2016,08,11,12,36,22.70
2016,08,11,12,37,22.70
2016,08,11,12,38,22.70
2016,08,11,12,39,22.70
2016,08,11,12,40,22.80
2016,08,11,12,41,22.90
2016,08,11,12,42,23.00
2016,08,11,12,43,23.10
2016,08,11,12,44,23.10
2016,08,11,12,45,23.10
2016,08,11,12,46,23.20
2016,08,11,12,47,23.20
2016,08,11,12,48,23.20
2016,08,11,12,49,23.20
2016,08,11,12,50,23.20
2016,08,11,12,51,23.30
2016,08,11,12,52,23.40
2016,08,11,12,53,23.40
2016,08,11,12,54,23.40
2016,08,11,12,55,23.40
2016,08,11,12,56,23.40
2016,08,11,12,57,23.40
2016,08,11,12,58,23.40
2016,08,11,12,59,23.30
2016,08,11,13,00,23.30
2016,08,11,13,01,23.30
2016,08,11,13,02,23.30
2016,08,11,13,03,23.30
2016,08,11,13,04,23.30
2016,08,11,13,05,23.30
2016,08,11,13,06,23.30
2016,08,11,13,07,23.30
2016,08,11,13,08,23.30
2016,08,11,13,09,23.40
2016,08,11,13,10,23.40
2016,08,11,13,11,23.50
2016,08,11,13,12,23.60
2016,08,11,13,13,23.60
2016,08,11,13,14,23.60
2016,08,11,13,15,23.60
2016,08,11,13,16,23.60
2016,08,11,13,17,23.60
2016,08,11,13,18,23.60
2016,08,11,13,19,23.50
2016,08,11,13,20,23.40
2016,08,11,13,21,23.40
2016,08,11,13,22,23.40
2016,08,11,13,23,23.30
2016,08,11,13,24,23.30
2016,08,11,13,25,23.20
2016,08,11,13,26,23.20
2016,08,11,13,27,23.10
2016,08,11,13,28,23.10
2016,08,11,13,29,23.00
2016,08,11,13,30,23.00
2016,08,11,13,31,23.00
2016,08,11,13,32,23.10
2016,08,11,13,33,23.10
2016,08,11,13,34,23.10
2016,08,11,13,35,23.20
2016,08,11,13,36,23.20
2016,08,11,13,37,23.30
2016,08,11,13,38,23.30
2016,08,11,13,39,23.40
2016,08,11,13,40,23.50
2016,08,11,13,41,23.50
2016,08,11,13,42,23.50
2016,08,11,13,43,23.40
2016,08,11,13,44,23.50
2016,08,11,13,45,23.60
2016,08,11,13,46,23.60
2016,08,11,13,47,23.70
2016,08,11,13,48,23.80
2016,08,11,13,49,23.90
2016,08,11,13,50,23.90
2016,08,11,13,51,23.90
2016,08,11,13,52,23.90
2016,08,11,13,53,23.90
2016,08,11,13,54,23.90
2016,08,11,13,55,23.90
2016,08,11,13,56,23.90
2016,08,11,13,57,23.90
2016,08,11,13,58,23.90
2016,08,11,13,59,23.90
2016,08,11,14,00,24.00
2016,08,11,14,01,24.00
2016,08,11,14,02,24.10
2016,08,11,14,03,24.20
2016,08,11,14,04,24.20
2016,08,11,14,05,24.20
2016,08,11,14,06,24.30
2016,08,11,14,07,24.30
2016,08,11,14,08,24.40
2016,08,11,14,09,24.50
2016,08,11,14,10,24.60
2016,08,11,14,11,24.60
2016,08,11,14,12,24.60
2016,08,11,14,13,24.60
2016,08,11,14,14,24.50
2016,08,11,14,15,24.50
2016,08,11,14,16,24.40
2016,08,11,14,17,24.40
2016,08,11,14,18,24.40
2016,08,11,14,19,24.30
2016,08,11,14,20,24.40
2016,08,11,14,21,24.40
2016,08,11,14,22,24.40
2016,08,11,14,23,24.40
2016,08,11,14,24,24.40
2016,08,11,14,25,24.30
2016,08,11,14,26,24.30
2016,08,11,14,27,24.30
2016,08,11,14,28,24.30
2016,08,11,14,29,24.30
2016,08,11,14,30,24.30
2016,08,11,14,31,24.40
2016,08,11,14,32,24.50
2016,08,11,14,33,24.50
2016,08,11,14,34,24.60
2016,08,11,14,35,24.60
2016,08,11,14,36,24.60
2016,08,11,14,37,24.60
2016,08,11,14,38,24.60
2016,08,11,14,39,24.60
2016,08,11,14,40,24.60
2016,08,11,14,41,24.50
2016,08,11,14,42,24.50
2016,08,11,14,43,24.50
2016,08,11,14,44,24.60
2016,08,11,14,45,24.70
2016,08,11,14,46,24.80
2016,08,11,14,47,24.90
2016,08,11,14,48,25.00
2016,08,11,14,49,25.10
2016,08,11,14,50,25.20
2016,08,11,14,51,25.30
2016,08,11,14,52,25.40
2016,08,11,14,53,25.40
2016,08,11,14,54,25.50
2016,08,11,14,55,25.50
2016,08,11,14,56,25.50
2016,08,11,14,57,25.50
2016,08,11,14,58,25.50
2016,08,11,14,59,25.60
2016,08,11,15,00,25.70
2016,08,11,15,01,25.70
2016,08,11,15,02,25.70
2016,08,11,15,03,25.70
2016,08,11,15,04,25.60
2016,08,11,15,05,25.50
2016,08,11,15,06,25.50
2016,08,11,15,07,25.40
2016,08,11,15,08,25.40
2016,08,11,15,09,25.30
2016,08,11,15,10,25.30
2016,08,11,15,11,25.30
2016,08,11,15,12,25.30
2016,08,11,15,13,25.30
2016,08,11,15,14,25.30
2016,08,11,15,15,25.30
2016,08,11,15,16,25.30
2016,08,11,15,17,25.40
2016,08,11,15,18,25.40
2016,08,11,15,19,25.40
2016,08,11,15,20,25.40
2016,08,11,15,21,25.40
2016,08,11,15,22,25.40
2016,08,11,15,23,25.50
2016,08,11,15,24,25.50
2016,08,11,15,25,25.60
2016,08,11,15,26,25.60
2016,08,11,15,27,25.60
2016,08,11,15,28,25.60
2016,08,11,15,29,25.70
2016,08,11,15,30,25.70
2016,08,11,15,31,25.80
2016,08,11,15,32,25.80
2016,08,11,15,33,25.80
2016,08,11,15,34,25.80
2016,08,11,15,35,25.90
2016,08,11,15,36,25.90
2016,08,11,15,37,26.00
2016,08,11,15,38,26.00
2016,08,11,15,39,25.90
2016,08,11,15,40,25.90
2016,08,11,15,41,25.90
2016,08,11,15,42,25.90
2016,08,11,15,43,25.90
2016,08,11,15,44,25.90
2016,08,11,15,45,25.90
2016,08,11,15,46,25.80
2016,08,11,15,47,25.80
2016,08,11,15,48,25.80
2016,08,11,15,49,25.80
2016,08,11,15,50,25.80
2016,08,11,15,51,25.90
2016,08,11,15,52,25.90
2016,08,11,15,53,25.90
2016,08,11,15,54,25.90
2016,08,11,15,55,25.80
2016,08,11,15,56,25.80
2016,08,11,15,57,25.70
2016,08,11,15,58,25.60
2016,08,11,15,59,25.50
2016,08,11,16,00,25.50
2016,08,11,16,01,25.40
2016,08,11,16,02,25.40
2016,08,11,16,03,25.50
2016,08,11,16,04,25.50
2016,08,11,16,05,25.40
2016,08,11,16,06,25.30
2016,08,11,16,07,25.20
2016,08,11,16,08,25.20
2016,08,11,16,09,25.10
2016,08,11,16,10,25.00
2016,08,11,16,11,24.90
2016,08,11,16,12,24.90
2016,08,11,16,13,24.90
2016,08,11,16,14,24.90
2016,08,11,16,15,24.80
2016,08,11,16,16,24.80
2016,08,11,16,17,24.80
2016,08,11,16,18,24.70
2016,08,11,16,19,24.70
2016,08,11,16,20,24.70
2016,08,11,16,21,24.80
2016,08,11,16,22,24.80
2016,08,11,16,23,24.80
2016,08,11,16,24,24.80
2016,08,11,16,25,24.80
2016,08,11,16,26,24.80
2016,08,11,16,27,24.80
2016,08,11,16,28,24.80
2016,08,11,16,29,24.80
2016,08,11,16,30,24.80
2016,08,11,16,31,24.90
2016,08,11,16,32,24.90
2016,08,11,16,33,24.90
2016,08,11,16,34,25.00
2016,08,11,16,35,25.10
2016,08,11,16,36,25.10
2016,08,11,16,37,25.20
2016,08,11,16,38,25.40
2016,08,11,16,39,25.50
2016,08,11,16,40,25.60
2016,08,11,16,41,25.70
2016,08,11,16,42,25.70
2016,08,11,16,43,25.80
2016,08,11,16,44,25.90
2016,08,11,16,45,26.00
2016,08,11,16,46,26.00
2016,08,11,16,47,26.10
2016,08,11,16,48,26.10
2016,08,11,16,49,26.20
2016,08,11,16,50,26.10
2016,08,11,16,51,26.10
2016,08,11,16,52,26.10
2016,08,11,16,53,26.00
2016,08,11,16,54,25.90
2016,08,11,16,55,25.80
2016,08,11,16,56,25.70
2016,08,11,16,57,25.60
2016,08,11,16,58,25.60
2016,08,11,16,59,25.60
2016,08,11,17,00,25.60
2016,08,11,17,01,25.70
2016,08,11,17,02,25.80
2016,08,11,17,03,25.80
2016,08,11,17,04,25.90
2016,08,11,17,05,25.90
2016,08,11,17,06,25.90
2016,08,11,17,07,26.00
2016,08,11,17,08,26.00
2016,08,11,17,09,26.10
2016,08,11,17,10,26.10
2016,08,11,17,11,26.10
2016,08,11,17,12,26.10
2016,08,11,17,13,26.00
2016,08,11,17,14,26.00
2016,08,11,17,15,26.00
2016,08,11,17,16,25.90
2016,08,11,17,17,25.90
2016,08,11,17,18,25.90
2016,08,11,17,19,25.90
2016,08,11,17,20,25.90
2016,08,11,17,21,25.90
2016,08,11,17,22,25.80
2016,08,11,17,23,25.80
2016,08,11,17,24,25.80
2016,08,11,17,25,25.80
2016,08,11,17,26,25.70
2016,08,11,17,27,25.70
2016,08,11,17,28,25.70
2016,08,11,17,29,25.70
2016,08,11,17,30,25.70
2016,08,11,17,31,25.70
2016,08,11,17,32,25.70
2016,08,11,17,33,25.70
2016,08,11,17,34,25.70
2016,08,11,17,35,25.70
2016,08,11,17,36,25.70
2016,08,11,17,37,25.70
2016,08,11,17,38,25.80
2016,08,11,17,39,25.90
2016,08,11,17,40,25.90
2016,08,11,17,41,26.00
2016,08,11,17,42,26.00
2016,08,11,17,43,26.00
2016,08,11,17,44,26.10
2016,08,11,17,45,26.10
2016,08,11,17,46,26.10
2016,08,11,17,47,26.10
2016,08,11,17,48,26.10
2016,08,11,17,49,26.20
2016,08,11,17,50,26.20
2016,08,11,17,51,26.30
2016,08,11,17,52,26.40
2016,08,11,17,53,26.40
2016,08,11,17,54,26.40
2016,08,11,17,55,26.40
2016,08,11,17,56,26.40
2016,08,11,17,57,26.40
2016,08,11,17,58,26.40
2016,08,11,17,59,26.50
2016,08,11,18,00,26.50
2016,08,11,18,01,26.50
2016,08,11,18,02,26.40
2016,08,11,18,03,26.40
2016,08,11,18,04,26.40
2016,08,11,18,05,26.40
2016,08,11,18,06,26.30
2016,08,11,18,07,26.30
2016,08,11,18,08,26.30
2016,08,11,18,09,26.30
2016,08,11,18,10,26.20
2016,08,11,18,11,26.20
2016,08,11,18,12,26.20
2016,08,11,18,13,26.10
2016,08,11,18,14,26.10
2016,08,11,18,15,26.10
2016,08,11,18,16,26.10
2016,08,11,18,17,26.00
2016,08,11,18,18,26.10
2016,08,11,18,19,26.10